This is the latest recevied weather packets stored in our database for station/object LU8FCJ-5. If no packets are shown the sender has not sent any weather packets the latest 10 day(s).
| Time | Temp. | Humidity | Pressure | Rain* | Wind** | Luminosity | Snow |
|---|---|---|---|---|---|---|---|
| 1777678958 | 15° C | 79% | 1015.6 hPa | 0 mm | - | - | - |
| 1777678647 | 15° C | 81% | 1015.5 hPa | 0 mm | - | - | - |
| 1777678340 | 15° C | 82% | 1015.3 hPa | 0 mm | - | - | - |
| 1777678028 | 14.44° C | 84% | 1015.4 hPa | 0 mm | - | - | - |
| 1777677718 | 15° C | 83% | 1015.2 hPa | 0 mm | - | - | - |
| 1777677408 | 15° C | 83% | 1014.9 hPa | 0 mm | - | - | - |
| 1777677097 | 15° C | 82% | 1014.8 hPa | 0 mm | - | - | - |
| 1777676784 | 15° C | 83% | 1014.6 hPa | 0 mm | - | - | - |
| 1777676479 | 15° C | 82% | 1014.5 hPa | 0 mm | - | - | - |
| 1777676167 | 15.56° C | 80% | 1014.4 hPa | 0 mm | - | - | - |
| 1777675858 | 16.11° C | 79% | 1014.2 hPa | 0 mm | - | - | - |
| 1777675546 | 16.67° C | 78% | 1014 hPa | 0 mm | - | - | - |
| 1777675237 | 16.67° C | 77% | 1013.8 hPa | 0 mm | - | - | - |
| 1777674927 | 17.22° C | 76% | 1013.6 hPa | 0 mm | - | - | - |
| 1777674617 | 17.22° C | 76% | 1013.6 hPa | 0 mm | - | - | - |
| 1777674306 | 17.22° C | 74% | 1013.7 hPa | 0 mm | - | - | - |
| 1777673685 | 17.78° C | 72% | 1013.2 hPa | 0 mm | - | - | - |
| 1777673375 | 18.33° C | 71% | 1013.3 hPa | 0 mm | - | - | - |
| 1777673066 | 18.33° C | 70% | 1013.3 hPa | 0 mm | - | - | - |
| 1777672755 | 18.33° C | 70% | 1013.2 hPa | 0 mm | - | - | - |
| 1777672445 | 18.33° C | 68% | 1012.7 hPa | 0 mm | - | - | - |
| 1777672135 | 18.89° C | 67% | 1012.8 hPa | 0 mm | - | - | - |
| 1777671824 | 18.89° C | 67% | 1012.6 hPa | 0 mm | - | - | - |
| 1777671514 | 19.44° C | 67% | 1012.5 hPa | 0 mm | - | - | - |
| 1777671204 | 19.44° C | 67% | 1012.4 hPa | 0 mm | - | 119 W/m² | - |
* Rain latest hour (hover to see other rain measurements)
** Current wind speed in m/s (hover to see current wind gust speed)